Location: Cudham
(51.3000°N, 0.0667°E)
Time: 07:22:39
(UTC+00:00)

MetOp-B - Pass Details

Date: 19 May 2025
Orbit: 820 x 821 km, 98.6° (Epoch: 19 June)

Event Time Altitude Azimuth Distance (km) Brightness Sun altitude
Rises 20:21:06 0° 165° (SSE) 3,341 6.8 -4.6°
Reaches altitude 10° 20:23:26 10° 166° (SSE) 2,413 6.1 -4.9°
Maximum altitude 20:28:48 84° 254° (WSW) 833 4.3 -5.5°
Drops below altitude 10° 20:34:12 10° 344° (NNW) 2,429 7.7 -6.2°
Sets 20:36:34 0° 345° (NNW) 3,366 8.5 -6.4°
